Location: Alsip
(41.6689°N, 87.7387°W)
Time: 15:16:15
(UTC+00:00)

Meteor 2-6 Rocket - Pass Details

Date: 14 July 2020
Orbit: 804 x 916 km, 81.3° (Epoch: 13 August)

Event Time Altitude Azimuth Distance (km) Brightness Sun altitude
Rises 05:04:57 0° 353° (N) 3,345 8.7 -25.6°
Reaches altitude 10° 05:07:24 10° 357° (N) 2,401 7.6 -25.7°
Maximum altitude 05:12:44 60° 78° (ENE) 919 4.3 -25.9°
Enters shadow 05:13:07 58° 98° (E) 933 4.2 -25.9°
